Change the Weather History Date:

Thursday, January 30, 2014

  Actual Average Record
Temperature  
Mean Temperature 28 °F -  
Max Temperature 37 °F 62 °F 78 °F (1950)
Min Temperature 18 °F 39 °F 18 °F (2014)
Degree Days  
Heating Degree Days 38    
Moisture  
Dew Point 25 °F    
Average Humidity 86    
Maximum Humidity 92    
Minimum Humidity 78    
Precipitation  
Precipitation 0.00 in - - ()
Sea Level Pressure  
Sea Level Pressure 30.27 in    
Wind  
Wind Speed 4 mph (NE)    
Max Wind Speed 7 mph    
Max Gust Speed -    
Visibility 6 miles    
Events      
Averages and records for this station are not official NWS values.
T = Trace of Precipitation, MM = Missing Value Source: NWS Daily Summary

Daily Weather History Graph

Daily Weather History Graph

Search for Another Location

Airport or City:

Trip Planner

Search our weather history database for the weather conditions in past years. The results will help you decide how hot, cold, wet, or windy it might be!

Date:

Astronomy

Jan. 30, 2014 Rise Set
Actual Time 6:38 AM CST 5:20 PM CST
Civil Twilight 6:13 AM CST 5:45 PM CST
Nautical Twilight 5:44 AM CST 6:14 PM CST
Astronomical Twilight 5:15 AM CST 6:43 PM CST
Moon 6:06 AM CST (1/30) 5:27 PM CST (1/30)
Length of Visible Light 11h 32m
Length of Day
10h 41m
Waning Crescent, 0% of the Moon is Illuminated
Jan 30
Waning Crescent
Jan 30
New
Feb 6
First Quarter
Feb 14
Full
Feb 22
Last Quarter

Hourly Weather History & Observations

Time (CST) Temp. Windchill Dew Point Humidity Pressure Visibility Wind Dir Wind Speed Gust Speed Precip Events Conditions
12:53 AM 19.9 °F 13.4 °F 14.0 °F 78% 30.34 in 10.0 mi NNE 4.6 mph - N/A   Clear
1:53 AM 19.9 °F 14.9 °F 14.0 °F 78% 30.33 in 10.0 mi North 3.5 mph - N/A   Clear
2:53 AM 19.9 °F 14.9 °F 14.0 °F 78% 30.31 in 10.0 mi NNE 3.5 mph - N/A   Clear
3:53 AM 19.0 °F 13.9 °F 14.0 °F 81% 30.31 in 10.0 mi North 3.5 mph - N/A   Clear
4:53 AM 19.0 °F 13.9 °F 14.0 °F 81% 30.32 in 10.0 mi North 3.5 mph - N/A   Clear
5:53 AM 18.0 °F 12.7 °F 14.0 °F 84% 30.34 in 10.0 mi North 3.5 mph - N/A   Clear
6:53 AM 18.0 °F 12.7 °F 14.0 °F 84% 30.34 in 10.0 mi NE 3.5 mph - N/A   Clear
7:06 AM 19.0 °F 13.9 °F 15.1 °F 85% 30.34 in 10.0 mi NE 3.5 mph - N/A   Scattered Clouds
7:17 AM 19.9 °F 14.9 °F 16.0 °F 85% 30.34 in 10.0 mi NE 3.5 mph - N/A   Mostly Cloudy
7:53 AM 21.9 °F 15.7 °F 18.0 °F 85% 30.35 in 9.0 mi Variable 4.6 mph - N/A   Overcast
8:53 AM 25.0 °F 18.1 °F 23.0 °F 92% 30.35 in 5.0 mi ENE 5.8 mph - N/A   Overcast
9:44 AM 27.0 °F 20.5 °F 24.1 °F 89% 30.33 in 5.0 mi NE 5.8 mph - N/A   Scattered Clouds
9:53 AM 27.0 °F 19.5 °F 24.1 °F 89% 30.34 in 6.0 mi ENE 6.9 mph - N/A   Scattered Clouds
10:53 AM 32.0 °F 26.4 °F 28.0 °F 85% 30.32 in 8.0 mi East 5.8 mph - N/A   Scattered Clouds
11:00 AM 32.0 °F 26.4 °F 27.0 °F 82% 30.31 in 8.0 mi ENE 5.8 mph - N/A   Mostly Cloudy
11:21 AM 30.9 °F 27.5 °F 27.0 °F 85% 30.31 in 8.0 mi East 3.5 mph - N/A   Scattered Clouds
11:28 AM 30.9 °F 26.2 °F 27.0 °F 85% 30.31 in 8.0 mi Variable 4.6 mph - N/A   Mostly Cloudy
11:37 AM 32.0 °F 27.5 °F 27.0 °F 82% 30.30 in 8.0 mi NNE 4.6 mph - N/A   Mostly Cloudy
11:53 AM 32.0 °F 26.4 °F 27.0 °F 82% 30.30 in 8.0 mi NNE 5.8 mph - N/A   Mostly Cloudy
12:31 PM 33.1 °F 27.7 °F 28.9 °F 85% 30.27 in 8.0 mi NE 5.8 mph - N/A   Scattered Clouds
12:53 PM 34.0 °F 29.8 °F 30.0 °F 85% 30.27 in 7.0 mi ENE 4.6 mph - N/A   Mostly Cloudy
1:03 PM 34.0 °F 29.8 °F 30.0 °F 85% 30.27 in 8.0 mi NE 4.6 mph - N/A   Scattered Clouds
1:34 PM 35.1 °F 31.0 °F 30.9 °F 85% 30.26 in 7.0 mi NNE 4.6 mph - N/A   Mostly Cloudy
1:53 PM 37.0 °F 32.4 °F 30.9 °F 79% 30.27 in 8.0 mi NNE 5.8 mph - N/A   Mostly Cloudy
2:01 PM 36.0 °F 31.1 °F 30.9 °F 82% 30.27 in 8.0 mi East 5.8 mph - N/A   Scattered Clouds
2:09 PM 36.0 °F - 30.9 °F 82% 30.27 in 8.0 mi Calm Calm - N/A   Mostly Cloudy
2:37 PM 37.0 °F 32.4 °F 32.0 °F 82% 30.24 in 8.0 mi East 5.8 mph - N/A   Scattered Clouds
2:53 PM 37.0 °F 34.5 °F 32.0 °F 82% 30.23 in 7.0 mi Variable 3.5 mph - N/A   Scattered Clouds
3:06 PM 37.9 °F 33.5 °F 32.0 °F 79% 30.22 in 7.0 mi Variable 5.8 mph - N/A   Partly Cloudy
3:53 PM 37.9 °F 33.5 °F 32.0 °F 79% 30.20 in 8.0 mi North 5.8 mph - N/A   Partly Cloudy
4:53 PM 37.0 °F 34.5 °F 32.0 °F 82% 30.25 in 7.0 mi NNE 3.5 mph - N/A   Clear
5:19 PM 32.0 °F 26.4 °F 28.9 °F 88% 30.22 in 1.8 mi ESE 5.8 mph - N/A   Clear
5:27 PM 33.1 °F 30.0 °F 30.0 °F 89% 30.20 in 3.0 mi East 3.5 mph - N/A   Clear
5:53 PM 32.0 °F 28.7 °F 30.0 °F 92% 30.22 in 3.0 mi ESE 3.5 mph - N/A   Clear
6:08 PM 30.9 °F - 28.9 °F 92% 30.20 in 1.8 mi Calm Calm - N/A   Clear
6:32 PM 28.9 °F - 27.0 °F 92% 30.21 in 2.5 mi Calm Calm - N/A   Clear
6:41 PM 30.0 °F 25.2 °F 28.0 °F 92% 30.19 in 3.0 mi North 4.6 mph - N/A   Clear
6:53 PM 30.0 °F - 28.0 °F 92% 30.20 in 2.5 mi Calm Calm - N/A   Clear
7:15 PM 30.0 °F - 28.0 °F 92% 30.20 in 3.0 mi Calm Calm - N/A   Clear
7:30 PM 28.0 °F - 26.1 °F 92% 30.20 in 2.5 mi Calm Calm - N/A   Clear
7:53 PM 27.0 °F - 25.0 °F 92% 30.21 in 2.5 mi Calm Calm - N/A   Clear
8:02 PM 27.0 °F - 25.0 °F 92% 30.21 in 3.0 mi Calm Calm - N/A   Clear
8:10 PM 27.0 °F - 24.1 °F 89% 30.21 in 2.5 mi Calm Calm - N/A   Clear
8:19 PM 27.0 °F - 24.1 °F 89% 30.22 in 1.2 mi Calm Calm - N/A   Clear
8:25 PM 27.0 °F - 24.1 °F 89% 30.22 in 3.0 mi Calm Calm - N/A   Clear
8:53 PM 26.1 °F - 24.1 °F 92% 30.21 in 3.0 mi Calm Calm - N/A   Clear
9:53 PM 26.1 °F - 23.0 °F 88% 30.20 in 4.0 mi Calm Calm - N/A   Clear
11:53 PM 25.0 °F - 21.9 °F 88% 30.22 in 5.0 mi Calm Calm - N/A   Clear